TimeMST,TemperatureF,Dew PointF,Humidity,Sea Level PressureIn,VisibilityMPH,Wind Direction,Wind SpeedMPH,Gust SpeedMPH,PrecipitationIn,Events,Conditions,WindDirDegrees,DateUTC
12:15 AM,93.2,57.2,30,29.80,10.0,WNW,10.4,-,N/A,,Clear,300,2013-07-15 07:15:00
12:35 AM,93.2,59.0,32,29.80,10.0,NNW,8.1,-,N/A,,Clear,330,2013-07-15 07:35:00
12:55 AM,93.2,59.0,32,29.80,10.0,North,5.8,-,N/A,,Clear,350,2013-07-15 07:55:00
1:15 AM,93.2,59.0,32,29.80,10.0,NNE,4.6,-,N/A,,Clear,30,2013-07-15 08:15:00
1:35 AM,93.2,60.8,34,29.80,10.0,Calm,Calm,-,N/A,,Clear,0,2013-07-15 08:35:00
1:55 AM,89.6,62.6,40,29.80,10.0,SE,3.5,-,N/A,,Clear,140,2013-07-15 08:55:00
2:15 AM,87.8,59.0,38,29.80,10.0,SSE,3.5,-,N/A,,Clear,160,2013-07-15 09:15:00
2:35 AM,86.0,59.0,40,29.80,10.0,Calm,Calm,-,N/A,,Clear,0,2013-07-15 09:35:00
2:55 AM,86.0,60.8,43,29.80,10.0,SSW,3.5,-,N/A,,Clear,210,2013-07-15 09:55:00
3:15 AM,87.8,60.8,40,29.80,10.0,SSW,3.5,-,N/A,,Clear,200,2013-07-15 10:15:00
3:35 AM,87.8,60.8,40,29.80,10.0,Calm,Calm,-,N/A,,Clear,0,2013-07-15 10:35:00
3:55 AM,87.8,60.8,40,29.80,10.0,West,3.5,-,N/A,,Clear,270,2013-07-15 10:55:00
4:15 AM,87.8,59.0,38,29.80,10.0,Calm,Calm,-,N/A,,Clear,0,2013-07-15 11:15:00
4:35 AM,87.8,59.0,38,29.80,10.0,Calm,Calm,-,N/A,,Clear,0,2013-07-15 11:35:00
4:47 AM,87.8,59.0,38,29.80,20.0,Variable,4.6,-,N/A,,Scattered Clouds,0,2013-07-15 11:47:00
4:55 AM,86.0,59.0,40,29.80,10.0,Calm,Calm,-,N/A,,Clear,0,2013-07-15 11:55:00
5:15 AM,86.0,59.0,40,29.80,10.0,ENE,9.2,-,N/A,,Clear,60,2013-07-15 12:15:00
5:35 AM,86.0,59.0,40,29.82,10.0,East,5.8,-,N/A,,Clear,80,2013-07-15 12:35:00
5:47 AM,86.0,60.8,43,29.81,30.0,East,6.9,-,N/A,,Mostly Cloudy,90,2013-07-15 12:47:00
6:47 AM,84.2,62.6,48,29.83,30.0,ESE,5.8,-,N/A,,Mostly Cloudy,120,2013-07-15 13:47:00
7:47 AM,87.8,62.6,43,29.84,30.0,SE,5.8,-,N/A,,Mostly Cloudy,130,2013-07-15 14:47:00
8:47 AM,93.2,62.6,36,29.85,30.0,East,5.8,-,N/A,,Mostly Cloudy,90,2013-07-15 15:47:00
9:49 AM,95.0,60.8,32,29.84,30.0,SE,4.6,-,N/A,,Mostly Cloudy,140,2013-07-15 16:49:00
10:47 AM,98.6,60.8,29,29.83,30.0,Calm,Calm,-,N/A,,Mostly Cloudy,0,2013-07-15 17:47:00
11:47 AM,100.4,59.0,25,29.82,30.0,WSW,5.8,-,N/A,,Mostly Cloudy,250,2013-07-15 18:47:00
12:47 PM,102.2,57.2,22,29.80,30.0,WNW,9.2,-,N/A,,Scattered Clouds,290,2013-07-15 19:47:00
1:50 PM,104.0,55.4,20,29.76,30.0,NW,11.5,-,N/A,,Scattered Clouds,320,2013-07-15 20:50:00
2:50 PM,104.0,55.4,20,29.73,30.0,WNW,4.6,-,N/A,,Mostly Cloudy,290,2013-07-15 21:50:00
3:47 PM,104.0,53.6,19,29.70,30.0,WSW,3.5,-,N/A,,Mostly Cloudy,240,2013-07-15 22:47:00
4:50 PM,104.0,55.4,20,29.69,10.0,WSW,10.4,-,N/A,,Widespread Dust,250,2013-07-15 23:50:00
5:47 PM,98.6,60.8,29,29.73,5.0,WSW,11.5,28.8,N/A,,Widespread Dust,250,2013-07-16 00:47:00
6:50 PM,82.4,69.8,66,29.73,20.0,NNE,15.0,-,N/A,,Mostly Cloudy,30,2013-07-16 01:50:00
7:50 PM,86.0,71.6,62,29.73,20.0,NNE,9.2,-,N/A,,Mostly Cloudy,20,2013-07-16 02:50:00
7:55 PM,86.0,71.6,62,29.73,10.0,NNE,9.2,-,N/A,,Clear,30,2013-07-16 02:55:00
8:15 PM,86.0,71.6,62,29.73,10.0,NE,5.8,-,N/A,,Clear,40,2013-07-16 03:15:00
8:35 PM,86.0,71.6,62,29.74,10.0,Calm,Calm,-,N/A,,Clear,0,2013-07-16 03:35:00
8:47 PM,86.0,73.4,66,29.74,20.0,SSW,5.8,-,N/A,,Mostly Cloudy,210,2013-07-16 03:47:00
8:55 PM,86.0,71.6,62,29.75,10.0,SW,5.8,-,N/A,,Clear,230,2013-07-16 03:55:00
9:15 PM,86.0,69.8,58,29.77,10.0,WSW,5.8,-,N/A,,Clear,250,2013-07-16 04:15:00
9:35 PM,87.8,69.8,55,29.78,10.0,WSW,5.8,-,N/A,Thunderstorm,Thunderstorm,250,2013-07-16 04:35:00
9:47 PM,87.8,69.8,55,29.78,20.0,WSW,6.9,-,N/A,,Mostly Cloudy,250,2013-07-16 04:47:00
9:55 PM,87.8,68.0,52,29.78,10.0,West,5.8,-,N/A,,Clear,260,2013-07-16 04:55:00
10:15 PM,86.0,66.2,51,29.79,10.0,West,4.6,-,N/A,,Clear,280,2013-07-16 05:15:00
10:35 PM,87.8,66.2,49,29.79,10.0,NNW,6.9,-,N/A,,Clear,330,2013-07-16 05:35:00
10:47 PM,87.8,66.2,49,29.79,20.0,NNW,4.6,-,N/A,,Mostly Cloudy,330,2013-07-16 05:47:00
10:55 PM,86.0,68.0,55,29.79,10.0,NW,4.6,-,N/A,,Clear,320,2013-07-16 05:55:00
11:15 PM,86.0,68.0,55,29.80,10.0,ENE,4.6,-,N/A,,Clear,60,2013-07-16 06:15:00
11:35 PM,86.0,68.0,55,29.83,10.0,East,11.5,-,N/A,Thunderstorm,Clear,100,2013-07-16 06:35:00
11:47 PM,87.8,64.4,46,29.83,20.0,East,15.0,27.6,N/A,,Mostly Cloudy,80,2013-07-16 06:47:00
11:55 PM,86.0,64.4,48,29.83,10.0,East,24.2,31.1,N/A,,Clear,100,2013-07-16 06:55:00